EW3904 Weather Reports


Display with metric or nautical units.
time (UTC)temp
F
wind
direction
speed
MPH
gust
MPH
rain 1hr
in
rain 24hr
in
rain mn
in
humidity
%
barometer
mb
20260507101214 67 171 5.0 6.0 0.13 0.55 0.43 95 1009.3
20260507100214 67 174 4.0 10.0 0.14 0.55 0.43 95 1009.4
20260507095214 67 164 2.0 7.0 0.14 0.55 0.43 95 1009.4
20260507094214 67 192 2.0 15.0 0.12 0.53 0.41 95 1008.7
20260507092214 67 157 1.0 8.0 0.08 0.48 0.36 95 1010.0
20260507090213 67 238 2.0 4.0 0.01 0.41 0.29 95 1011.0
20260507085213 67 125 4.0 6.0 0.01 0.41 0.29 95 1010.4
20260507084213 67 178 4.0 5.0 0.01 0.41 0.29 95 1011.1
20260507083213 67 204 3.0 4.0 0.01 0.41 0.29 95 1010.9
20260507082213 67 224 2.0 4.0 0.00 0.40 0.28 95 1010.9
20260507081213 67 200 2.0 4.0 0.00 0.40 0.28 95 1010.5
20260507080213 67 203 3.0 4.0 0.03 0.40 0.28 95 1010.7
20260507075213 67 196 3.0 5.0 0.05 0.40 0.28 95 1010.9
20260507074213 67 232 2.0 5.0 0.07 0.40 0.28 95 1011.0
20260507073213 67 183 2.0 6.0 0.08 0.40 0.28 95 1011.2
20260507071213 67 200 4.0 8.0 0.09 0.40 0.28 94 1010.5
20260507070213 67 207 2.0 10.0 0.07 0.37 0.25 94 1010.8
20260507065212 67 144 2.0 9.0 0.06 0.35 0.23 94 1010.8
20260507064212 67 184 2.0 4.0 0.06 0.33 0.21 94 1010.7
20260507063213 67 178 4.0 13.0 0.07 0.32 0.20 94 1010.2
20260507062212 67 221 2.0 10.0 0.10 0.31 0.19 93 1011.4
20260507061212 68 224 5.0 9.0 0.12 0.31 0.19 93 1011.7
20260507054212 68 184 10.0 11.0 0.13 0.27 0.15 93 1011.7
20260507053212 68 244 4.0 10.0 0.12 0.25 0.13 93 1012.3
20260507052212 68 240 7.0 10.0 0.08 0.21 0.09 93 1013.3
20260507051211 68 207 7.0 10.0 0.06 0.19 0.07 92 1013.2
20260507050211 69 202 4.0 10.0 0.05 0.17 0.05 92 1012.8
20260507045211 69 191 6.0 10.0 0.03 0.15 0.03 92 1012.9
20260507044211 69 221 4.0 10.0 0.02 0.14 0.02 91 1012.3
20260507043211 69 255 9.0 9.0 0.01 0.13 0.01 91 1012.4
20260507042211 69 238 4.0 8.0 0.03 0.13 0.01 91 1012.9
20260507041211 69 257 3.0 9.0 0.05 0.13 0.01 91 1013.2
20260507040241 69 244 7.0 9.0 0.04 0.12 0.00 91 1012.5
20260507034211 69 215 3.0 4.0 0.12 0.12 0.12 90 1012.3
20260507033211 70 225 3.0 8.0 0.12 0.12 0.12 90 1012.3
20260507032211 70 240 4.0 12.0 0.10 0.10 0.10 90 1012.0
20260507031211 70 225 7.0 9.0 0.08 0.08 0.08 89 1013.0
20260507030211 70 227 4.0 9.0 0.08 0.08 0.08 89 1013.0
20260507025211 71 201 4.0 8.0 0.08 0.08 0.08 87 1012.8
20260507024211 72 261 7.0 10.0 0.00 0.00 0.00 84 1014.6
20260507023211 72 209 6.0 7.0 0.00 0.00 0.00 84 1012.9
20260507022211 72 234 4.0 4.0 0.00 0.00 0.00 83 1012.7
20260507021211 73 193 0.0 3.0 0.00 0.00 0.00 83 1012.4
20260507020210 73 225 1.0 2.0 0.00 0.00 0.00 82 1012.7
20260507015210 74 225 0.0 2.0 0.00 0.00 0.00 79 1012.8
20260507013210 76 203 2.0 3.0 0.00 0.00 0.00 75 1012.9
20260507012210 76 241 2.0 4.0 0.00 0.00 0.00 73 1012.9
20260507011210 76 241 3.0 4.0 0.00 0.00 0.00 72 1012.8
20260507010210 76 266 3.0 4.0 0.00 0.00 0.00 72 1012.5
20260507004210 77 194 4.0 7.0 0.00 0.00 0.00 71 1012.7
20260507003210 77 222 3.0 9.0 0.00 0.00 0.00 71 1012.9
20260507002210 77 209 3.0 10.0 0.00 0.00 0.00 70 1012.9
20260507001210 78 226 3.0 5.0 0.00 0.00 0.00 70 1012.6
20260507000212 78 267 6.0 10.0 0.00 0.00 0.00 70 1012.9
20260506235209 78 228 2.0 6.0 0.00 0.00 0.00 70 1012.1
20260506233209 78 261 3.0 6.0 0.00 0.00 0.00 69 1012.1
20260506232210 79 245 4.0 7.0 0.00 0.00 0.00 68 1012.1
20260506231209 79 240 2.0 5.0 0.00 0.00 0.00 68 1011.7
20260506230209 79 240 4.0 10.0 0.00 0.00 0.00 68 1011.9
20260506225209 80 214 4.0 10.0 0.00 0.00 0.00 67 1012.5
20260506224209 80 212 3.0 10.0 0.00 0.00 0.00 66 1012.3
20260506223209 80 237 10.0 12.0 0.00 0.00 0.00 65 1012.4
20260506221209 82 226 6.0 10.0 0.00 0.00 0.00 63 1012.0
20260506220209 82 182 4.0 10.0 0.00 0.00 0.00 63 1011.9
20260506215209 81 182 7.0 12.0 0.00 0.00 0.00 63 1012.0
20260506214209 81 234 6.0 10.0 0.00 0.00 0.00 63 1012.1
20260506213209 81 223 10.0 11.0 0.00 0.00 0.00 63 1012.1
20260506211209 82 207 7.0 12.0 0.00 0.00 0.00 63 1012.2
20260506210209 81 230 7.0 11.0 0.00 0.00 0.00 62 1012.2
20260506205209 83 247 3.0 11.0 0.00 0.00 0.00 60 1012.5
20260506204209 82 277 11.0 12.0 0.00 0.00 0.00 65 1012.8
20260506203208 82 269 10.0 10.0 0.00 0.00 0.00 63 1013.0
20260506202208 81 269 6.0 12.0 0.00 0.00 0.00 64 1013.1
20260506201208 82 266 10.0 13.0 0.00 0.00 0.00 62 1013.1
20260506200208 83 217 4.0 10.0 0.00 0.00 0.00 62 1013.5
20260506195209 82 248 8.0 10.0 0.00 0.00 0.00 62 1013.6
20260506194208 81 225 5.0 12.0 0.00 0.00 0.00 63 1013.7
20260506193208 81 236 8.0 14.0 0.00 0.00 0.00 61 1013.9
20260506192208 81 287 10.0 14.0 0.00 0.00 0.00 61 1014.1
20260506191208 80 246 6.0 13.0 0.00 0.00 0.00 63 1014.3
20260506185208 80 197 8.0 12.0 0.00 0.00 0.00 62 1014.3
20260506184208 80 252 4.0 17.0 0.00 0.00 0.00 63 1014.6
20260506183208 81 259 10.0 14.0 0.00 0.00 0.00 61 1014.5
20260506181208 81 257 9.0 13.0 0.00 0.00 0.00 63 1014.5
20260506180207 81 210 5.0 11.0 0.00 0.00 0.00 62 1014.4
20260506175207 80 257 6.0 15.0 0.00 0.00 0.00 61 1014.4
20260506174207 80 261 11.0 15.0 0.00 0.00 0.00 60 1014.4
20260506173207 80 196 7.0 16.0 0.00 0.00 0.00 61 1014.4
20260506172207 79 173 4.0 10.0 0.00 0.00 0.00 62 1014.4
20260506171238 78 205 7.0 11.0 0.00 0.00 0.00 61 1014.7
20260506170237 77 240 8.0 14.0 0.00 0.00 0.00 62 1015.0
20260506165207 78 244 4.0 11.0 0.00 0.00 0.00 64 1015.1
20260506164207 77 208 6.0 10.0 0.00 0.00 0.00 64 1015.3
20260506163207 77 240 10.0 13.0 0.00 0.00 0.00 64 1015.5
20260506162237 77 217 9.0 15.0 0.00 0.00 0.00 66 1015.7
20260506161207 76 265 13.0 13.0 0.00 0.00 0.00 67 1016.0
20260506155237 74 263 8.0 14.0 0.00 0.00 0.00 68 1015.9
20260506154237 75 252 8.0 13.0 0.00 0.00 0.00 69 1016.0
20260506153237 74 245 8.0 14.0 0.00 0.00 0.00 70 1016.0
20260506151206 73 228 6.0 15.0 0.00 0.00 0.00 72 1016.0
20260506150236 73 262 13.0 13.0 0.00 0.00 0.00 71 1015.7
20260506144206 72 259 10.0 12.0 0.00 0.00 0.00 73 1015.8
20260506143236 71 244 8.0 13.0 0.00 0.00 0.00 78 1015.8
20260506142236 71 243 12.0 16.0 0.00 0.00 0.00 81 1015.5
20260506141206 70 255 6.0 13.0 0.00 0.00 0.00 82 1015.2
20260506140236 69 252 7.0 10.0 0.00 0.00 0.00 83 1015.3
20260506135206 69 207 6.0 14.0 0.00 0.00 0.00 83 1015.0
20260506134206 69 237 10.0 11.0 0.00 0.00 0.00 83 1014.8
20260506133236 69 226 8.0 12.0 0.00 0.00 0.00 84 1015.1
20260506132206 69 254 10.0 11.0 0.00 0.00 0.00 83 1014.8
20260506131236 68 253 9.0 9.0 0.00 0.00 0.00 85 1014.7
20260506130206 67 246 7.0 10.0 0.00 0.00 0.00 85 1014.9
20260506125206 67 262 7.0 7.0 0.00 0.00 0.00 86 1015.2
20260506124205 67 218 8.0 8.0 0.00 0.00 0.00 85 1014.9
20260506122205 66 214 1.0 2.0 0.00 0.00 0.00 86 1014.9
20260506121205 65 221 0.0 2.0 0.00 0.00 0.00 86 1014.7
20260506115205 65 216 2.0 4.0 0.00 0.00 0.00 86 1014.8
20260506114235 64 213 2.0 4.0 0.00 0.00 0.00 86 1014.7
20260506113235 64 207 1.0 3.0 0.00 0.00 0.00 87 1014.6
20260506112235 63 254 1.0 2.0 0.00 0.00 0.00 86 1014.5
20260506111205 63 227 0.0 2.0 0.00 0.00 0.00 87 1014.3
20260506110205 61 235 0.0 2.0 0.00 0.00 0.00 88 1014.1
20260506105235 60 203 0.0 0.0 0.00 0.00 0.00 87 1014.0
20260506104205 61 189 0.0 0.0 0.00 0.00 0.00 85 1013.6
20260506103235 61 189 0.0 0.0 0.00 0.00 0.00 85 1013.5